Vorticity
5 5 6 1 1 8 7 8 13 10 4 0 8 -10 7 3 1 4 10 -1 -1 6 6 5 7 3 5 4 2 3 3 3 3 3 4 4 4 4 5 4 5 5 7 4 3 0 3 4 6
5 6 4 -1 4 3 3 17 2 1 5 5 5 4 4 12 5 3 3 3 3 5 6 4 3 6 7 3 4 3 4 3 3 3 3 4 4 4 4 4 4 5 5 6 4 4 4 3 4
5 6 -1 -1 8 14 14 6 3 5 4 2 3 1 4 3 5 3 4 4 4 5 3 4 4 2 3 6 5 4 2 3 3 4 3 3 5 3 3 3 3 4 4 4 4 4 3 5 4
4 4 1 1 12 6 13 2 7 5 4 3 3 8 9 6 5 7 7 6 6 5 5 5 5 4 4 3 5 6 3 2 4 4 4 3 3 3 4 4 3 3 4 4 4 4 4 4 4
4 5 3 9 8 11 -1 6 5 4 4 4 3 5 1 4 5 5 4 2 2 3 4 5 5 5 5 6 5 8 13 11 2 3 4 3 3 3 3 3 3 3 4 4 4 3 4 4 4
4 -0 9 3 6 7 5 5 5 3 4 4 6 4 2 3 2 4 4 5 5 6 6 6 7 6 7 9 6 5 1 4 1 4 3 7 6 4 3 2 2 2 2 4 5 4 4 4 4
2 -8 5 9 7 8 4 6 4 3 4 5 3 5 -5 4 5 4 5 6 6 6 6 6 6 7 8 8 10 11 3 3 2 2 -1 -5 1 3 4 3 4 3 3 2 4 4 4 4 4
5 -1 11 3 8 7 7 5 6 4 2 8 1 10 14 9 7 7 5 5 6 8 7 6 6 6 7 7 8 9 14 12 17 -3 9 10 7 6 1 5 8 5 4 4 4 2 3 5 3
6 0 8 5 8 4 6 7 6 4 5 4 4 4 4 2 6 5 6 5 5 5 6 5 4 5 5 5 5 4 5 5 8 10 12 13 5 0 9 -1 -2 3 7 1 1 2 4 3 3
4 -3 5 -5 1 2 6 8 3 8 5 4 4 5 5 5 5 4 5 6 7 7 6 6 6 5 4 5 5 5 5 6 6 6 6 6 8 11 15 7 3 -2 -2 1 -1 1 -1 1 3
6 -8 6 3 5 5 5 6 4 7 5 8 4 4 8 6 5 6 6 5 4 7 8 10 9 9 8 8 7 7 7 6 5 5 5 5 6 6 6 10 7 19 17 14 9 7 3 6 1
5 6 6 6 6 6 5 7 5 4 9 6 6 6 6 7 6 6 6 6 7 7 7 7 7 8 8 8 8 8 8 8 8 8 8 8 8 8 7 6 5 6 6 6 7 8 10 6 3
6 6 6 6 5 5 5 4 2 6 5 4 6 5 5 5 5 5 6 6 7 8 7 7 6 7 8 8 8 8 7 7 7 7 7 6 7 7 7 8 8 7 7 6 6 6 6 6 4
3 4 4 4 4 4 5 6 4 8 10 8 7 8 8 7 7 7 7 7 8 7 5 5 6 6 5 6 7 7 7 7 7 7 6 6 6 6 6 6 6 6 6 7 7 6 6 7 7
7 8 6 6 7 7 9 10 18 6 6 5 5 5 6 8 9 10 9 8 7 6 6 6 5 5 5 5 5 6 6 6 6 6 6 6 6 6 5 5 5 5 6 6 6 6 5 5 6
6 12 19 3 3 1 4 -1 23 3 1 5 4 5 4 5 8 9 7 6 9 8 6 5 6 5 6 6 6 5 5 5 6 7 8 10 11 12 12 13 12 11 8 7 6 6 6 7 7
16 2 4 13 10 3 6 -2 3 -5 12 11 11 10 10 9 9 8 6 8 10 8 10 5 6 6 6 6 6 6 8 10 11 12 12 12 12 12 12 12 13 14 15 15 15 12 9 7 7
-2 0 2 2 -3 -5 5 5 12 11 13 21 24 24 22 16 13 15 16 8 7 6 4 7 8 7 7 7 8 11 12 13 12 12 12 11 10 10 10 10 10 10 10 11 12 13 14 14 11
6 6 9 15 -4 11 4 11 8 39 28 8 10 9 10 9 13 26 9 6 8 9 9 8 8 8 9 10 12 12 11 10 9 9 9 7 9 6 6 10 11 -3 -4 3 6 10 14 12 13
8 7 12 27 -4 7 5 9 52 20 5 16 10 7 11 20 15 9 15 25 14 11 11 10 10 10 11 12 11 10 10 8 9 8 6 7 3 6 6 10 12 11 12 13 12 12 7 9 15
8 8 4 3 5 28 7 47 -29 -10 6 9 10 6 23 10 28 21 16 33 20 15 14 11 10 10 10 9 10 15 14 11 6 10 8 2 4 2 17 18 18 15 12 14 15 18 15 15 13
12 4 3 4 12 9 -8 -0 34 1 7 -8 5 16 10 29 34 23 37 26 14 12 11 9 9 8 8 6 9 8 10 5 12 11 2 9 -3 16 14 16 18 17 13 13 17 19 14 15 18
-0 1 9 2 29 18 11 20 -9 2 -2 14 7 11 24 27 23 17 12 12 6 10 10 9 9 8 5 5 7 7 6 9 11 3 12 4 12 1 8 18 21 19 21 21 25 19 17 15 14
4 7 22 20 17 19 9 0 1 -1 4 15 9 15 20 19 8 3 5 5 11 6 12 10 9 9 6 6 7 7 8 11 7 10 9 1 9 -4 8 3 0 11 23 20 18 20 18 19 19
7 17 13 12 10 3 -7 37 -20 3 10 13 11 10 15 19 11 2 2 6 11 12 10 9 8 9 7 8 7 6 8 9 10 9 6 8 10 10 7 4 3 7 11 18 11 10 13 15 14
9 11 9 11 10 -7 14 19 1 12 6 11 10 9 9 8 6 3 4 1 6 12 13 7 6 7 7 8 7 8 9 9 10 8 8 10 13 9 7 10 11 10 7 11 15 16 10 9 9
6 8 2 6 17 15 5 8 43 -8 5 1 3 4 3 1 -1 1 3 4 4 3 4 10 8 8 9 10 9 10 9 10 11 11 9 9 7 9 7 8 8 9 7 7 8 12 13 12 10
11 4 4 12 11 13 12 14 1 9 9 3 4 -4 -15 8 4 1 2 5 10 13 10 9 10 6 5 11 13 9 10 12 12 12 11 9 10 9 7 7 6 7 9 8 7 9 11 14 14
9 6 12 7 6 3 7 12 5 9 6 10 -0 -12 26 8 14 27 21 14 18 16 16 15 14 6 6 12 14 9 10 11 12 10 9 8 6 6 5 6 6 5 6 6 8 7 5 5 20
8 6 6 1 13 7 -1 19 9 -13 -8 25 32 12 9 10 8 11 14 14 15 15 14 13 12 9 10 14 10 10 10 10 10 8 7 7 6 6 6 6 6 7 8 7 7 7 8 9 7
Height
3162 3164 3166 3168 3173 3170 3171 3172 3170 3172 3174 3173 3174 3175 3177 3176 3176 3179 3175 3175 3174 3173 3172 3172 3171 3172 3171 3172 3173 3172 3171 3172 3171 3171 3170 3170 3169 3168 3168 3167 3166 3165 3164 3164 3163 3163 3162 3160 3159
3164 3166 3168 3169 3171 3169 3172 3170 3172 3171 3171 3173 3174 3175 3176 3175 3175 3174 3174 3174 3173 3173 3172 3171 3171 3170 3171 3170 3171 3171 3170 3171 3170 3169 3169 3169 3169 3168 3167 3167 3166 3165 3164 3163 3163 3162 3161 3160 3159
3164 3166 3169 3170 3171 3169 3172 3172 3170 3171 3172 3173 3174 3174 3174 3174 3174 3173 3172 3172 3171 3171 3170 3171 3170 3169 3169 3169 3169 3169 3169 3169 3169 3168 3169 3169 3168 3167 3166 3166 3166 3165 3164 3163 3162 3161 3161 3160 3159
3165 3168 3170 3171 3172 3170 3171 3171 3170 3171 3172 3173 3173 3174 3173 3173 3172 3172 3171 3171 3170 3170 3170 3169 3169 3168 3168 3167 3167 3167 3167 3167 3167 3167 3167 3167 3166 3166 3165 3164 3164 3164 3163 3162 3161 3161 3160 3159 3158
3165 3167 3170 3171 3170 3170 3170 3170 3171 3171 3171 3172 3172 3173 3172 3171 3171 3171 3170 3170 3169 3169 3168 3168 3167 3166 3166 3165 3165 3164 3164 3164 3165 3165 3165 3165 3165 3165 3164 3163 3162 3162 3162 3161 3160 3160 3159 3158 3158
3165 3168 3170 3171 3170 3169 3170 3170 3170 3171 3170 3171 3172 3171 3170 3170 3169 3169 3168 3167 3166 3166 3166 3165 3164 3164 3163 3162 3162 3162 3161 3161 3161 3162 3162 3162 3162 3162 3162 3161 3161 3161 3160 3160 3159 3158 3158 3157 3156
3164 3167 3169 3169 3169 3169 3169 3170 3170 3170 3169 3169 3170 3170 3167 3168 3167 3166 3165 3164 3163 3163 3163 3162 3161 3160 3160 3160 3159 3159 3158 3158 3158 3159 3159 3159 3159 3159 3159 3158 3158 3157 3157 3157 3156 3156 3155 3155 3154
3165 3166 3167 3168 3169 3170 3168 3168 3168 3168 3168 3168 3168 3168 3166 3165 3164 3163 3162 3162 3161 3160 3159 3159 3158 3157 3157 3156 3156 3156 3155 3155 3154 3155 3154 3155 3154 3156 3155 3155 3154 3154 3154 3154 3153 3153 3153 3152 3151
3163 3167 3168 3168 3168 3167 3166 3166 3166 3166 3165 3166 3165 3165 3164 3162 3162 3161 3160 3159 3158 3157 3156 3155 3154 3154 3153 3152 3152 3152 3151 3151 3151 3151 3150 3150 3150 3151 3152 3151 3150 3150 3151 3150 3149 3149 3149 3148 3148
3162 3164 3165 3164 3164 3164 3163 3163 3162 3163 3163 3163 3161 3161 3160 3159 3158 3157 3156 3155 3154 3153 3152 3152 3151 3150 3149 3148 3148 3148 3148 3147 3147 3146 3146 3146 3145 3145 3146 3146 3147 3146 3146 3146 3146 3146 3145 3144 3143
3160 3162 3162 3162 3162 3161 3161 3161 3160 3159 3159 3159 3158 3156 3156 3155 3154 3154 3152 3151 3150 3148 3148 3148 3146 3146 3145 3145 3144 3143 3143 3142 3142 3141 3141 3141 3140 3140 3140 3140 3140 3140 3140 3140 3140 3140 3141 3139 3139
3159 3159 3159 3160 3159 3159 3158 3157 3156 3156 3157 3155 3154 3152 3152 3151 3150 3149 3148 3147 3146 3144 3143 3142 3142 3141 3141 3140 3139 3139 3137 3137 3137 3136 3135 3135 3134 3134 3134 3133 3133 3133 3133 3133 3134 3133 3133 3133 3133
3156 3157 3156 3156 3157 3155 3155 3154 3150 3153 3151 3149 3149 3147 3147 3145 3144 3143 3142 3141 3140 3139 3138 3138 3137 3137 3136 3135 3135 3134 3133 3132 3131 3130 3130 3128 3128 3127 3127 3126 3125 3125 3124 3124 3124 3124 3125 3126 3126
3155 3154 3154 3154 3153 3152 3152 3150 3144 3149 3146 3144 3142 3142 3141 3140 3138 3137 3136 3135 3134 3133 3133 3132 3132 3131 3131 3130 3129 3128 3127 3126 3125 3124 3123 3122 3120 3119 3118 3118 3118 3117 3116 3116 3115 3114 3115 3116 3117
3153 3152 3151 3151 3151 3149 3147 3145 3140 3142 3140 3139 3137 3136 3135 3134 3132 3131 3129 3129 3128 3128 3127 3127 3126 3125 3124 3123 3122 3122 3121 3120 3118 3117 3116 3115 3113 3112 3110 3109 3109 3108 3107 3106 3106 3106 3105 3105 3106
3151 3150 3150 3148 3148 3145 3145 3137 3141 3134 3135 3134 3131 3129 3127 3127 3126 3124 3123 3122 3121 3121 3120 3120 3119 3119 3118 3117 3116 3115 3114 3113 3112 3110 3109 3107 3105 3103 3102 3100 3100 3099 3097 3096 3095 3095 3094 3094 3095
3149 3150 3150 3148 3143 3141 3140 3131 3135 3130 3129 3126 3124 3121 3119 3117 3117 3117 3115 3114 3115 3115 3115 3114 3114 3114 3113 3112 3111 3110 3108 3107 3105 3103 3102 3100 3097 3095 3093 3091 3090 3089 3087 3085 3084 3083 3083 3083 3083
3149 3149 3148 3146 3141 3137 3133 3125 3127 3127 3123 3118 3115 3113 3111 3108 3107 3107 3104 3103 3108 3108 3109 3108 3108 3107 3107 3106 3105 3103 3102 3100 3098 3097 3095 3093 3091 3089 3086 3083 3081 3079 3078 3076 3074 3073 3072 3071 3071
3146 3145 3143 3142 3137 3131 3128 3121 3120 3119 3116 3113 3110 3106 3103 3100 3099 3098 3096 3090 3097 3099 3100 3100 3100 3100 3100 3100 3098 3097 3095 3094 3092 3090 3088 3086 3084 3082 3079 3076 3073 3071 3069 3067 3065 3063 3062 3061 3060
3143 3142 3142 3137 3133 3128 3122 3115 3114 3114 3112 3110 3106 3102 3097 3093 3091 3088 3085 3086 3089 3091 3093 3094 3094 3094 3093 3092 3091 3090 3089 3088 3086 3085 3083 3080 3078 3075 3071 3067 3064 3061 3059 3056 3053 3052 3051 3050 3049
3141 3140 3138 3135 3129 3126 3118 3113 3114 3111 3108 3105 3100 3095 3089 3085 3082 3079 3078 3078 3082 3085 3087 3088 3088 3088 3088 3087 3086 3085 3084 3083 3082 3080 3078 3075 3072 3068 3063 3059 3054 3051 3048 3044 3042 3040 3039 3038 3039
3140 3138 3135 3132 3128 3127 3121 3118 3112 3111 3108 3103 3096 3089 3084 3079 3076 3073 3073 3075 3079 3082 3083 3083 3083 3083 3083 3082 3082 3080 3079 3078 3076 3074 3073 3070 3067 3062 3058 3053 3048 3043 3039 3034 3032 3030 3029 3029 3028
3138 3135 3132 3128 3125 3122 3120 3121 3110 3109 3105 3099 3093 3087 3083 3079 3077 3077 3078 3078 3078 3079 3080 3080 3079 3079 3079 3078 3076 3075 3073 3072 3070 3069 3067 3065 3061 3057 3053 3048 3043 3038 3033 3028 3024 3022 3020 3020 3020
3135 3133 3129 3125 3123 3123 3120 3122 3108 3106 3102 3098 3092 3088 3084 3083 3082 3081 3080 3080 3079 3080 3078 3077 3077 3076 3074 3073 3071 3070 3068 3066 3065 3063 3061 3059 3057 3053 3049 3045 3040 3034 3029 3025 3020 3016 3014 3014 3013
3135 3133 3129 3127 3124 3118 3117 3117 3107 3105 3101 3097 3093 3090 3087 3086 3085 3083 3081 3080 3078 3077 3075 3074 3073 3072 3070 3068 3066 3064 3063 3062 3060 3059 3057 3055 3053 3049 3045 3042 3038 3033 3027 3023 3018 3015 3013 3011 3009
3134 3135 3135 3131 3124 3120 3114 3110 3106 3104 3101 3097 3094 3091 3089 3087 3085 3083 3081 3078 3076 3074 3072 3071 3069 3068 3066 3064 3061 3059 3058 3057 3056 3054 3052 3050 3047 3044 3041 3038 3034 3029 3024 3021 3017 3014 3012 3010 3008
3133 3134 3134 3132 3128 3127 3113 3107 3105 3102 3100 3097 3094 3092 3089 3087 3085 3082 3080 3077 3075 3072 3070 3067 3065 3063 3061 3058 3057 3055 3053 3052 3050 3049 3047 3044 3042 3039 3037 3033 3028 3025 3020 3017 3013 3009 3006 3004 3001
3132 3133 3133 3132 3129 3120 3109 3105 3102 3101 3099 3096 3093 3090 3088 3086 3082 3079 3076 3073 3070 3068 3066 3063 3060 3057 3055 3053 3051 3049 3048 3046 3045 3044 3042 3040 3037 3034 3031 3027 3023 3020 3016 3012 3009 3006 3002 2999 2997
3130 3130 3130 3130 3129 3125 3115 3103 3100 3099 3097 3094 3091 3088 3084 3081 3077 3074 3071 3068 3065 3063 3060 3057 3054 3052 3050 3048 3046 3045 3043 3041 3040 3038 3036 3034 3031 3029 3026 3022 3019 3016 3012 3008 3004 3001 2998 2994 2990
3126 3126 3127 3129 3127 3124 3121 3102 3098 3097 3095 3091 3088 3086 3083 3079 3074 3070 3067 3064 3061 3059 3056 3053 3051 3048 3046 3043 3040 3038 3037 3035 3032 3031 3029 3027 3025 3023 3020 3017 3014 3011 3008 3004 3000 2996 2993 2989 2986